Time,TemperatureF,DewpointF,PressureIn,WindDirection,WindDirectionDegrees,WindSpeedMPH,WindSpeedGustMPH,Humidity,HourlyPrecipIn,Conditions,Clouds,dailyrainin,SoftwareType,DateUTC
2013-01-06 00:12:00,48.3,41.0,30.22,NNW,331,0.0,1.0,76,0.00,,,0.00,weatherlink.com 1.10,2013-01-06 06:12:00,
2013-01-06 00:27:00,48.1,41.0,30.21,NNE,18,0.0,0.0,76,0.00,,,0.00,weatherlink.com 1.10,2013-01-06 06:27:00,
2013-01-06 00:42:00,48.2,42.0,30.21,NNE,18,0.0,0.0,80,0.00,,,0.00,weatherlink.com 1.10,2013-01-06 06:42:00,
2013-01-06 00:57:00,48.3,41.0,30.21,SSE,167,0.0,1.0,76,0.00,,,0.00,weatherlink.com 1.10,2013-01-06 06:57:00,
2013-01-06 01:12:00,48.5,41.0,30.20,SSE,166,0.0,1.0,76,0.00,,,0.00,weatherlink.com 1.10,2013-01-06 07:12:00,
2013-01-06 01:27:00,48.4,43.0,30.20,SW,215,0.0,0.0,80,0.00,,,0.00,weatherlink.com 1.10,2013-01-06 07:27:00,
2013-01-06 01:42:00,47.8,42.0,30.20,NNE,33,0.0,2.0,81,0.00,,,0.00,weatherlink.com 1.10,2013-01-06 07:42:00,
2013-01-06 01:57:00,48.0,43.0,30.21,WNW,294,0.0,1.0,82,0.00,,,0.00,weatherlink.com 1.10,2013-01-06 07:57:00,
2013-01-06 02:12:00,47.9,42.0,30.21,NW,307,0.0,3.0,80,0.00,,,0.00,weatherlink.com 1.10,2013-01-06 08:12:00,
2013-01-06 02:27:00,47.9,42.0,30.22,North,9,0.0,0.0,79,0.00,,,0.00,weatherlink.com 1.10,2013-01-06 08:27:00,
2013-01-06 02:42:00,48.0,42.0,30.22,NW,322,0.0,0.0,81,0.00,,,0.00,weatherlink.com 1.10,2013-01-06 08:42:00,
2013-01-06 02:57:00,48.0,42.0,30.22,NW,321,0.0,2.0,79,0.00,,,0.00,weatherlink.com 1.10,2013-01-06 08:57:00,
2013-01-06 03:12:00,48.1,42.0,30.22,North,352,0.0,2.0,80,0.00,,,0.00,weatherlink.com 1.10,2013-01-06 09:12:00,
2013-01-06 03:27:00,48.1,42.0,30.22,NNE,12,0.0,1.0,79,0.00,,,0.00,weatherlink.com 1.10,2013-01-06 09:27:00,
2013-01-06 03:42:00,48.1,41.0,30.21,NNW,337,0.0,4.0,77,0.00,,,0.00,weatherlink.com 1.10,2013-01-06 09:42:00,
2013-01-06 03:57:00,48.1,42.0,30.21,NNE,12,0.0,2.0,78,0.00,,,0.00,weatherlink.com 1.10,2013-01-06 09:57:00,
2013-01-06 04:12:00,48.1,41.0,30.20,NNE,25,2.0,2.0,76,0.00,,,0.00,weatherlink.com 1.10,2013-01-06 10:12:00,
2013-01-06 04:27:00,48.2,41.0,30.20,NW,316,1.0,2.0,77,0.00,,,0.00,weatherlink.com 1.10,2013-01-06 10:27:00,
2013-01-06 04:42:00,48.1,41.0,30.20,NNW,340,1.0,4.0,76,0.00,,,0.00,weatherlink.com 1.10,2013-01-06 10:42:00,
2013-01-06 04:58:00,48.1,41.0,30.20,NNE,20,5.0,5.0,75,0.00,,,0.00,weatherlink.com 1.10,2013-01-06 10:58:00,
2013-01-06 05:13:00,48.0,40.0,30.21,NNW,329,4.0,6.0,75,0.00,,,0.00,weatherlink.com 1.10,2013-01-06 11:13:00,
2013-01-06 05:28:00,47.9,40.0,30.21,NNE,25,3.0,6.0,74,0.00,,,0.00,weatherlink.com 1.10,2013-01-06 11:28:00,
2013-01-06 05:43:00,47.8,40.0,30.21,NW,309,2.0,6.0,74,0.00,,,0.00,weatherlink.com 1.10,2013-01-06 11:43:00,
2013-01-06 05:58:00,47.6,40.0,30.21,North,10,0.0,5.0,74,0.00,,,0.00,weatherlink.com 1.10,2013-01-06 11:58:00,
2013-01-06 06:13:00,47.4,40.0,30.21,NNW,336,1.0,4.0,74,0.00,,,0.00,weatherlink.com 1.10,2013-01-06 12:13:00,
2013-01-06 06:28:00,47.1,40.0,30.23,NNE,18,2.0,3.0,77,0.00,,,0.00,weatherlink.com 1.10,2013-01-06 12:28:00,
2013-01-06 06:43:00,46.7,41.0,30.22,North,359,5.0,6.0,79,0.00,,,0.00,weatherlink.com 1.10,2013-01-06 12:43:00,
2013-01-06 06:58:00,46.5,41.0,30.22,North,8,1.0,3.0,80,0.00,,,0.00,weatherlink.com 1.10,2013-01-06 12:58:00,
2013-01-06 07:13:00,46.6,40.0,30.23,NNE,28,0.0,6.0,79,0.00,,,0.00,weatherlink.com 1.10,2013-01-06 13:13:00,
2013-01-06 07:28:00,46.8,40.0,30.24,North,9,1.0,5.0,78,0.00,,,0.00,weatherlink.com 1.10,2013-01-06 13:28:00,
2013-01-06 07:43:00,47.1,40.0,30.24,NNE,18,2.0,4.0,77,0.00,,,0.00,weatherlink.com 1.10,2013-01-06 13:43:00,
2013-01-06 07:58:00,47.3,40.0,30.23,North,349,2.0,4.0,77,0.00,,,0.00,weatherlink.com 1.10,2013-01-06 13:58:00,
2013-01-06 08:13:00,47.7,40.0,30.24,NNE,20,6.0,6.0,76,0.00,,,0.00,weatherlink.com 1.10,2013-01-06 14:13:00,
2013-01-06 08:28:00,47.8,41.0,30.23,ENE,60,1.0,5.0,76,0.00,,,0.00,weatherlink.com 1.10,2013-01-06 14:28:00,
2013-01-06 08:43:00,48.1,40.0,30.24,NNE,20,3.0,7.0,74,0.00,,,0.00,weatherlink.com 1.10,2013-01-06 14:43:00,
2013-01-06 08:58:00,48.5,40.0,30.23,NNW,328,3.0,6.0,73,0.00,,,0.00,weatherlink.com 1.10,2013-01-06 14:58:00,
2013-01-06 09:13:00,48.9,40.0,30.24,North,9,2.0,6.0,72,0.00,,,0.00,weatherlink.com 1.10,2013-01-06 15:13:00,
2013-01-06 09:28:00,49.5,40.0,30.24,NE,43,0.0,5.0,71,0.00,,,0.00,weatherlink.com 1.10,2013-01-06 15:28:00,
2013-01-06 09:43:00,50.2,40.0,30.24,North,358,3.0,4.0,69,0.00,,,0.00,weatherlink.com 1.10,2013-01-06 15:43:00,
2013-01-06 09:58:00,50.6,40.0,30.23,NNE,18,6.0,6.0,68,0.00,,,0.00,weatherlink.com 1.10,2013-01-06 15:58:00,
2013-01-06 10:13:00,51.0,41.0,30.24,NNW,336,2.0,6.0,68,0.00,,,0.00,weatherlink.com 1.10,2013-01-06 16:13:00,
2013-01-06 10:28:00,51.1,41.0,30.24,NNW,335,1.0,5.0,69,0.00,,,0.00,weatherlink.com 1.10,2013-01-06 16:28:00,
2013-01-06 10:43:00,51.0,42.0,30.23,NNE,26,2.0,4.0,71,0.00,,,0.00,weatherlink.com 1.10,2013-01-06 16:43:00,
2013-01-06 10:58:00,50.9,42.0,30.21,NNE,16,0.0,3.0,71,0.00,,,0.00,weatherlink.com 1.10,2013-01-06 16:58:00,
2013-01-06 11:13:00,51.2,42.0,30.22,North,8,1.0,5.0,71,0.00,,,0.00,weatherlink.com 1.10,2013-01-06 17:13:00,
2013-01-06 11:28:00,52.0,43.0,30.22,NW,323,2.0,7.0,72,0.00,,,0.00,weatherlink.com 1.10,2013-01-06 17:28:00,
2013-01-06 11:43:00,51.2,44.0,30.20,North,353,2.0,11.0,77,0.00,,,0.00,weatherlink.com 1.10,2013-01-06 17:43:00,
2013-01-06 11:58:00,50.5,44.0,30.20,NW,318,4.0,7.0,78,0.00,,,0.00,weatherlink.com 1.10,2013-01-06 17:58:00,
2013-01-06 12:13:00,50.4,44.0,30.19,NNE,26,2.0,4.0,80,0.00,,,0.00,weatherlink.com 1.10,2013-01-06 18:13:00,
2013-01-06 12:28:00,50.8,44.0,30.19,NNE,33,1.0,6.0,76,0.00,,,0.00,weatherlink.com 1.10,2013-01-06 18:28:00,
2013-01-06 12:43:00,51.0,44.0,30.18,NNE,13,5.0,9.0,77,0.00,,,0.00,weatherlink.com 1.10,2013-01-06 18:43:00,
2013-01-06 12:58:00,51.3,44.0,30.18,WNW,293,1.0,6.0,75,0.00,,,0.00,weatherlink.com 1.10,2013-01-06 18:58:00,
2013-01-06 13:13:00,51.4,44.0,30.18,NNW,330,0.0,4.0,75,0.00,,,0.00,weatherlink.com 1.10,2013-01-06 19:13:00,
2013-01-06 13:28:00,51.5,45.0,30.18,NNE,18,2.0,6.0,78,0.00,,,0.00,weatherlink.com 1.10,2013-01-06 19:28:00,
2013-01-06 13:59:00,51.0,46.0,30.17,North,6,2.0,4.0,82,0.00,,,0.00,weatherlink.com 1.10,2013-01-06 19:59:00,
2013-01-06 14:13:00,51.5,47.0,30.17,North,5,0.0,2.0,83,0.00,,,0.00,weatherlink.com 1.10,2013-01-06 20:13:00,
2013-01-06 14:28:00,52.0,46.0,30.17,NNE,15,1.0,2.0,80,0.00,,,0.00,weatherlink.com 1.10,2013-01-06 20:28:00,
2013-01-06 14:44:00,52.3,46.0,30.16,NNW,343,2.0,5.0,79,0.00,,,0.00,weatherlink.com 1.10,2013-01-06 20:44:00,
2013-01-06 14:59:00,52.7,46.0,30.17,North,349,4.0,6.0,77,0.00,,,0.00,weatherlink.com 1.10,2013-01-06 20:59:00,
2013-01-06 15:14:00,52.6,45.0,30.17,NNE,16,2.0,6.0,76,0.00,,,0.00,weatherlink.com 1.10,2013-01-06 21:14:00,
2013-01-06 15:29:00,52.4,45.0,30.18,NNE,16,1.0,4.0,77,0.00,,,0.00,weatherlink.com 1.10,2013-01-06 21:29:00,
2013-01-06 15:44:00,52.6,46.0,30.18,North,355,0.0,2.0,78,0.00,,,0.00,weatherlink.com 1.10,2013-01-06 21:44:00,
2013-01-06 15:59:00,52.6,47.0,30.18,NW,316,0.0,3.0,80,0.00,,,0.00,weatherlink.com 1.10,2013-01-06 21:59:00,
2013-01-06 16:14:00,52.2,46.0,30.18,North,6,0.0,4.0,78,0.00,,,0.00,weatherlink.com 1.10,2013-01-06 22:14:00,
2013-01-06 16:29:00,52.0,46.0,30.18,North,9,1.0,2.0,81,0.00,,,0.00,weatherlink.com 1.10,2013-01-06 22:29:00,
2013-01-06 16:44:00,51.6,45.0,30.18,NNW,338,4.0,6.0,79,0.00,,,0.00,weatherlink.com 1.10,2013-01-06 22:44:00,
2013-01-06 16:59:00,51.1,45.0,30.18,NNE,33,1.0,4.0,80,0.00,,,0.00,weatherlink.com 1.10,2013-01-06 22:59:00,
2013-01-06 17:14:00,50.8,46.0,30.18,ENE,58,0.0,0.0,82,0.00,,,0.00,weatherlink.com 1.10,2013-01-06 23:14:00,
2013-01-06 17:29:00,50.4,45.0,30.18,NNW,328,0.0,1.0,83,0.00,,,0.00,weatherlink.com 1.10,2013-01-06 23:29:00,
2013-01-06 17:44:00,50.0,46.0,30.19,NNW,328,0.0,0.0,85,0.00,,,0.00,weatherlink.com 1.10,2013-01-06 23:44:00,
2013-01-06 17:59:00,48.9,46.0,30.19,NNW,328,0.0,0.0,88,0.00,,,0.00,weatherlink.com 1.10,2013-01-06 23:59:00,
2013-01-06 18:14:00,47.8,45.0,30.20,NNW,342,0.0,0.0,89,0.00,,,0.00,weatherlink.com 1.10,2013-01-07 00:14:00,
2013-01-06 18:29:00,46.9,44.0,30.20,WSW,257,0.0,0.0,90,0.00,,,0.00,weatherlink.com 1.10,2013-01-07 00:29:00,
2013-01-06 18:44:00,45.9,44.0,30.21,WSW,257,0.0,0.0,91,0.00,,,0.00,weatherlink.com 1.10,2013-01-07 00:44:00,
2013-01-06 18:59:00,45.1,43.0,30.22,WSW,258,0.0,0.0,92,0.00,,,0.00,weatherlink.com 1.10,2013-01-07 00:59:00,
2013-01-06 19:14:00,44.4,43.0,30.22,WSW,257,0.0,0.0,93,0.00,,,0.00,weatherlink.com 1.10,2013-01-07 01:14:00,
2013-01-06 19:29:00,43.7,42.0,30.23,WSW,257,0.0,0.0,93,0.00,,,0.00,weatherlink.com 1.10,2013-01-07 01:29:00,
2013-01-06 19:44:00,42.9,41.0,30.23,WSW,257,0.0,0.0,94,0.00,,,0.00,weatherlink.com 1.10,2013-01-07 01:44:00,
2013-01-06 19:59:00,42.5,41.0,30.24,WSW,257,0.0,0.0,95,0.00,,,0.00,weatherlink.com 1.10,2013-01-07 01:59:00,
2013-01-06 20:14:00,41.9,41.0,30.24,WSW,257,0.0,0.0,96,0.00,,,0.00,weatherlink.com 1.10,2013-01-07 02:14:00,
2013-01-06 20:29:00,41.6,41.0,30.24,WSW,257,0.0,0.0,96,0.00,,,0.00,weatherlink.com 1.10,2013-01-07 02:29:00,
2013-01-06 20:44:00,41.4,40.0,30.24,WSW,257,0.0,0.0,96,0.00,,,0.00,weatherlink.com 1.10,2013-01-07 02:44:00,
2013-01-06 20:59:00,41.1,40.0,30.24,West,259,0.0,0.0,96,0.00,,,0.00,weatherlink.com 1.10,2013-01-07 02:59:00,
2013-01-06 21:14:00,40.4,39.0,30.24,West,259,0.0,0.0,96,0.00,,,0.00,weatherlink.com 1.10,2013-01-07 03:14:00,
2013-01-06 21:29:00,39.7,39.0,30.25,West,259,0.0,0.0,96,0.00,,,0.00,weatherlink.com 1.10,2013-01-07 03:29:00,
2013-01-06 21:44:00,40.1,39.0,30.25,ESE,110,0.0,1.0,96,0.00,,,0.00,weatherlink.com 1.10,2013-01-07 03:44:00,
2013-01-06 21:59:00,40.2,39.0,30.25,ESE,110,0.0,0.0,96,0.00,,,0.00,weatherlink.com 1.10,2013-01-07 03:59:00,
2013-01-06 22:14:00,40.2,39.0,30.26,East,93,0.0,0.0,96,0.00,,,0.00,weatherlink.com 1.10,2013-01-07 04:14:00,
2013-01-06 22:29:00,40.7,40.0,30.25,NNE,19,0.0,2.0,96,0.00,,,0.00,weatherlink.com 1.10,2013-01-07 04:29:00,
2013-01-06 22:44:00,41.2,40.0,30.25,NE,37,0.0,2.0,97,0.00,,,0.00,weatherlink.com 1.10,2013-01-07 04:44:00,
2013-01-06 22:59:00,41.4,40.0,30.25,North,354,0.0,1.0,96,0.00,,,0.00,weatherlink.com 1.10,2013-01-07 04:59:00,
2013-01-06 23:15:00,41.2,40.0,30.26,NNE,20,0.0,1.0,96,0.00,,,0.00,weatherlink.com 1.10,2013-01-07 05:15:00,
2013-01-06 23:29:00,40.7,40.0,30.27,NE,51,0.0,1.0,96,0.00,,,0.00,weatherlink.com 1.10,2013-01-07 05:29:00,
2013-01-06 23:44:00,40.0,39.0,30.27,NE,51,0.0,0.0,96,0.00,,,0.00,weatherlink.com 1.10,2013-01-07 05:44:00,
2013-01-06 23:59:00,39.9,39.0,30.27,NNE,33,0.0,1.0,96,0.00,,,0.00,weatherlink.com 1.10,2013-01-07 05:59:00,